Regional Weather Roundup
Issued by NWS

Home | Current Version | Previous Version | Text Only | Print | Product List | Glossary On
Versions: 1 2 3 4 5 6 7 8 9 10 11 12 13 14 15 16 17 18 19 20 21 22 23 24 25 26 27 28 29 30 31 32 33 34 35 36 37 38 39 40 41 42 43 44 45 46 47 48 49 50
032
ASUS44 KJAN 230403
RWRMS

MISSISSIPPI HOURLY WEATHER ROUNDUP
NATIONAL WEATHER SERVICE JACKSON MS
1100 PM CDT MON SEP 22 2014

NOTE: "FAIR: INDICATES FEW OR NO CLOUDS BELOW 12,000 FEET WITH NO
SIGNIFICANT WEATHER AND/OR OBSTRUCTIONS TO VISIBILITY.

MSZ001>002-007>008-010>013-018>021-025>028-034>036-230500-
NORTHWEST MISSISSIPPI

CITY           SKY/WX    TMP DP  RH WIND       PRES   REMARKS
CLARKSDALE     FAIR      63  55  77 N6        30.19S
CLEVELAND      FAIR      59  55  85 N7        30.18R
GREENWOOD      CLEAR     60  54  80 N3        30.17R
GREENVILLE     FAIR      64  52  64 NE8       30.17R
GRENADA        FAIR      63  54  72 N6        30.18R
OLIVE BRANCH   CLEAR     61  54  77 NE6       30.21R
OXFORD         FAIR      55  54  94 CALM      30.20S
TUNICA         CLEAR     59  52  77 N7        30.21R
$$

MSZ003>006-009-014>017-022>024-029>033-037>039-230500-
NORTHEAST MISSISSIPPI

CITY           SKY/WX    TMP DP  RH WIND       PRES   REMARKS
COLUMBUS AFB   CLEAR     61  54  77 N5        30.15S
CORINTH          N/A     59  48  67 CALM      30.19S
GOLDN TRIANGLE FAIR      59  52  77 N7        30.15R
STARKVILLE     FAIR      63  52  67 N3        30.15R
TUPELO         CLEAR     58  52  80 NE8       30.17S
$$

MSZ040-058-230500-
CENTRAL MISSISSIPPI

CITY           SKY/WX    TMP DP  RH WIND       PRES   REMARKS
JACKSON INTL   CLEAR     69  54  58 N7        30.14R
JACKSON HAWKNS CLEAR     68  54  60 NE6       30.14R
MERIDIAN KEY   CLEAR     64  53  67 N7        30.12R
MERIDIAN NAS   CLEAR     65  53  65 N7        30.13R
RAYMOND        FAIR      64  59  82 CALM      30.14R
VICKSBURG      CLEAR     67  55  65 NE9       30.14R
$$

MSZ059>079-230500-
SOUTH MISSISSIPPI

CITY           SKY/WX    TMP DP  RH WIND       PRES   REMARKS
BROOKHAVEN     FAIR      66  55  68 N6        30.13S
COLUMBIA       FAIR      64  55  72 NE6       30.09R
HATTIESBURG    CLEAR     70  53  54 N6        30.10R
MCCOMB         CLEAR     68  54  60 N7        30.10S
NATCHEZ        CLEAR     66  54  63 NE8       30.12S
PINE BELT      CLEAR    N/A N/A N/A N9        30.11S
$$

MSZ080>082-230500-
COASTAL MISSISSIPPI

CITY           SKY/WX    TMP DP  RH WIND       PRES   REMARKS
BILOXI         CLEAR     71  56  59 N7        30.05S
PASCAGOULA     CLEAR     64  58  80 N5        30.05R
GULFPORT       CLEAR     71  54  54 N9        30.05R
$$



USA.gov is the U.S. government's official web portal to all federal, state and local government web resources and services.